Location: Camp Creek
(33.9000°N, 111.8167°W)
Time: 05:36:40
(UTC-07:00)

Cosmos 1656 - Visible Passes

Search period start: 24 February 2017 00:00
Search period end: 06 March 2017 00:00
Orbit: 797 x 851 km, 71.1° (Epoch: 23 February)

Date Brightness Start Highest point End Pass type
(mag) Time Alt. Az. Time Alt. Az. Time Alt. Az.
24 Feb 7.0 05:30:01 10° ESE 05:32:06 12° E 05:34:12 10° ENE visible
26 Feb 3.9 06:28:29 10° SSW 06:34:10 82° ESE 06:39:53 10° NNE visible
27 Feb 4.1 06:08:07 10° S 06:13:45 69° ESE 06:19:26 10° NNE visible
28 Feb 4.4 05:47:48 10° S 05:53:21 58° ESE 05:58:57 10° NNE visible
01 Mar 4.7 05:27:32 10° S 05:32:58 49° ESE 05:38:27 10° NNE visible
02 Mar 5.0 05:07:19 10° S 05:12:36 41° ESE 05:17:54 10° NE visible
03 Mar 5.2 04:47:09 10° SSE 04:52:13 34° ESE 04:57:19 10° NE visible
04 Mar 5.5 04:27:03 10° SSE 04:31:52 29° ESE 04:36:41 10° NE visible
04 Mar 4.4 06:10:16 10° SW 06:15:20 33° WNW 06:20:27 10° N visible
05 Mar 5.7 04:08:01 14° SSE 04:11:30 24° ESE 04:15:59 10° NE visible
05 Mar 4.2 05:49:35 10° SW 05:54:52 38° WNW 06:00:10 10° N visible
